TimeCDT,TemperatureF,Dew PointF,Humidity,Sea Level PressureIn,VisibilityMPH,Wind Direction,Wind SpeedMPH,Gust SpeedMPH,PrecipitationIn,Events,Conditions,WindDirDegrees,DateUTC
12:53 AM,64.0,57.9,80,29.82,10.0,Calm,Calm,-,N/A,,Clear,0,2013-09-26 05:53:00
1:53 AM,63.0,57.9,84,29.82,10.0,Calm,Calm,-,N/A,,Clear,0,2013-09-26 06:53:00
2:53 AM,63.0,60.1,90,29.82,10.0,South,4.6,-,N/A,,Clear,170,2013-09-26 07:53:00
3:53 AM,61.0,57.9,90,29.82,10.0,Calm,Calm,-,N/A,,Clear,0,2013-09-26 08:53:00
4:53 AM,60.1,57.9,93,29.83,10.0,Calm,Calm,-,N/A,,Clear,0,2013-09-26 09:53:00
5:53 AM,60.1,55.9,86,29.84,10.0,Calm,Calm,-,N/A,,Clear,0,2013-09-26 10:53:00
6:53 AM,57.9,55.0,90,29.86,10.0,Calm,Calm,-,N/A,,Clear,0,2013-09-26 11:53:00
7:53 AM,61.0,57.9,90,29.89,9.0,East,3.5,-,N/A,,Clear,80,2013-09-26 12:53:00
8:53 AM,69.1,61.0,75,29.90,10.0,Calm,Calm,-,N/A,,Clear,0,2013-09-26 13:53:00
9:53 AM,79.0,61.0,54,29.91,10.0,SSE,4.6,-,N/A,,Clear,150,2013-09-26 14:53:00
10:53 AM,86.0,55.0,35,29.91,10.0,SW,6.9,-,N/A,,Clear,220,2013-09-26 15:53:00
11:53 AM,89.1,54.0,30,29.91,10.0,SW,6.9,-,N/A,,Clear,220,2013-09-26 16:53:00
12:53 PM,91.0,53.1,27,29.89,10.0,South,5.8,-,N/A,,Clear,180,2013-09-26 17:53:00
1:53 PM,91.9,54.0,27,29.88,10.0,South,8.1,-,N/A,,Clear,190,2013-09-26 18:53:00
2:53 PM,91.9,53.1,27,29.86,10.0,SSE,5.8,-,N/A,,Clear,160,2013-09-26 19:53:00
3:53 PM,93.0,54.0,27,29.85,10.0,ENE,5.8,-,N/A,,Clear,70,2013-09-26 20:53:00
4:53 PM,91.9,55.0,29,29.84,10.0,SSW,4.6,-,N/A,,Clear,210,2013-09-26 21:53:00
5:53 PM,91.0,55.9,30,29.85,10.0,ESE,5.8,-,N/A,,Clear,120,2013-09-26 22:53:00
6:53 PM,84.9,59.0,41,29.85,10.0,ESE,4.6,-,N/A,,Clear,110,2013-09-26 23:53:00
7:53 PM,75.9,62.1,62,29.86,10.0,SE,3.5,-,N/A,,Clear,140,2013-09-27 00:53:00
8:53 PM,75.0,60.1,60,29.87,10.0,SE,4.6,-,N/A,,Clear,130,2013-09-27 01:53:00
9:53 PM,77.0,59.0,54,29.88,10.0,ESE,6.9,-,N/A,,Clear,110,2013-09-27 02:53:00
10:53 PM,75.9,57.9,54,29.88,10.0,ESE,8.1,-,N/A,,Clear,120,2013-09-27 03:53:00
11:53 PM,75.0,59.0,57,29.89,10.0,SE,6.9,-,N/A,,Clear,130,2013-09-27 04:53:00